WZZ3KQ LIMJ-LHBP

Flight info

Callsign WZZ3KQ
Flight time 1h 29m
Altitude 38000
Route ITCAP DCT GOLAS DCT KALIK DCT LURUT DCT CHI/N0436F370 DCT BARPI DCT MAGAM DCT KOPRY DCT ULZAK
Aircraft A321/M-SDE1E2E3FGIJ1J4RWXY/LB1G1

Departure

Time 2026-05-05 16:15
Airport Genoa Cristoforo Colombo Airport (LIMJ)

Arrival

Time 2026-05-05 17:45
Airport Budapest Liszt Ferenc International Airport (LHBP)
Time Latitude Longitude Altitude Speed Heading
2026-05-05 15:23 44.41366 8.85207 20 ft 0 kts 15°
2026-05-05 16:08 44.41364 8.85206 20 ft 2 kts 15°
2026-05-05 16:08 44.41341 8.85198 20 ft 2 kts 15°
2026-05-05 16:08 44.41321 8.85187 21 ft 4 kts 50°
2026-05-05 16:08 44.41315 8.85155 23 ft 4 kts 103°
2026-05-05 16:09 44.41318 8.85138 21 ft 1 kts 104°
2026-05-05 16:09 44.41318 8.85137 20 ft 0 kts 104°
2026-05-05 16:11 44.41317 8.85144 20 ft 2 kts 104°
2026-05-05 16:12 44.41311 8.85176 20 ft 5 kts 105°
2026-05-05 16:12 44.41256 8.85277 22 ft 9 kts 160°
2026-05-05 16:13 44.41096 8.85231 19 ft 1 kts 195°
2026-05-05 16:13 44.41055 8.85190 18 ft 13 kts 227°
2026-05-05 16:13 44.41021 8.85069 18 ft 14 kts 280°
2026-05-05 16:14 44.41033 8.85013 18 ft 0 kts 285°
2026-05-05 16:14 44.41062 8.84867 19 ft 50 kts 285°
2026-05-05 16:15 44.41516 8.82546 99 ft 179 kts 285°
2026-05-05 16:15 44.41880 8.79122 1576 ft 183 kts 251°
2026-05-05 16:16 44.39945 8.77023 2708 ft 191 kts 180°
2026-05-05 16:16 44.37505 8.78365 4138 ft 193 kts 154°
2026-05-05 16:17 44.35906 8.81591 4848 ft 246 kts 91°
2026-05-05 16:17 44.36093 8.84087 5288 ft 269 kts 84°
2026-05-05 16:18 44.36705 8.89357 6738 ft 285 kts 83°
2026-05-05 16:18 44.37036 8.92111 7527 ft 290 kts 83°
2026-05-05 16:18 44.37688 8.97752 9146 ft 299 kts 84°
2026-05-05 16:19 44.38009 9.00645 9950 ft 303 kts 84°
2026-05-05 16:19 44.38331 9.03612 10450 ft 319 kts 84°
2026-05-05 16:19 44.39028 9.10138 11251 ft 353 kts 84°
2026-05-05 16:20 44.39772 9.17040 12670 ft 366 kts 84°
2026-05-05 16:20 44.40535 9.24180 13981 ft 376 kts 84°
2026-05-05 16:21 44.41315 9.31529 15263 ft 385 kts 84°
2026-05-05 16:22 44.42509 9.42824 17251 ft 398 kts 84°
2026-05-05 16:22 44.43319 9.50576 18472 ft 407 kts 84°
2026-05-05 16:23 44.44138 9.58496 19585 ft 415 kts 84°
2026-05-05 16:23 44.44552 9.62513 20120 ft 420 kts 84°
2026-05-05 16:23 44.45395 9.70616 21203 ft 429 kts 84°
2026-05-05 16:24 44.45821 9.74774 21756 ft 433 kts 84°
2026-05-05 16:24 44.46244 9.78961 22297 ft 437 kts 84°
2026-05-05 16:24 44.47061 9.87484 23358 ft 446 kts 86°
2026-05-05 16:25 44.47352 9.91826 23779 ft 449 kts 88°
2026-05-05 16:25 44.47753 10.00607 24635 ft 455 kts 89°
2026-05-05 16:25 44.47930 10.05053 25049 ft 458 kts 89°
2026-05-05 16:26 44.48334 10.14013 25909 ft 465 kts 88°
2026-05-05 16:26 44.48808 10.23102 26695 ft 470 kts 88°
2026-05-05 16:27 44.49050 10.27673 27105 ft 473 kts 88°
2026-05-05 16:27 44.49290 10.32286 27476 ft 477 kts 88°
2026-05-05 16:27 44.49524 10.36927 27892 ft 479 kts 89°
2026-05-05 16:27 44.49754 10.41606 28286 ft 482 kts 88°
2026-05-05 16:28 44.49982 10.46307 28703 ft 485 kts 89°
2026-05-05 16:28 44.50208 10.51035 29102 ft 488 kts 89°
2026-05-05 16:28 44.50431 10.55773 29500 ft 490 kts 89°
2026-05-05 16:28 44.50655 10.60550 29892 ft 492 kts 89°
2026-05-05 16:29 44.50877 10.65343 30274 ft 494 kts 89°
2026-05-05 16:29 44.51024 10.68524 30471 ft 495 kts 89°
2026-05-05 16:29 44.51319 10.74989 30831 ft 500 kts 89°
2026-05-05 16:29 44.51537 10.79860 31123 ft 503 kts 89°
2026-05-05 16:30 44.51754 10.84770 31399 ft 506 kts 89°
2026-05-05 16:30 44.51976 10.89704 31663 ft 510 kts 88°
2026-05-05 16:30 44.52471 10.94634 32009 ft 513 kts 78°
2026-05-05 16:30 44.53066 10.97838 32255 ft 514 kts 72°
2026-05-05 16:31 44.54357 11.02522 32621 ft 515 kts 63°
2026-05-05 16:31 44.56075 11.06913 32967 ft 514 kts 57°
2026-05-05 16:31 44.57926 11.11208 33342 ft 515 kts 57°
2026-05-05 16:31 44.59777 11.15522 33700 ft 516 kts 57°
2026-05-05 16:32 44.61624 11.19842 34068 ft 517 kts 57°
2026-05-05 16:32 44.63468 11.24158 34423 ft 516 kts 57°
2026-05-05 16:32 44.65309 11.28473 34836 ft 513 kts 57°
2026-05-05 16:32 44.67136 11.32758 35320 ft 509 kts 58°
2026-05-05 16:33 44.68947 11.37006 35775 ft 505 kts 58°
2026-05-05 16:33 44.70745 11.41225 36226 ft 503 kts 58°
2026-05-05 16:33 44.72535 11.45438 36660 ft 500 kts 58°
2026-05-05 16:33 44.74309 11.49626 37058 ft 498 kts 58°
2026-05-05 16:34 44.76074 11.53800 37449 ft 495 kts 58°
2026-05-05 16:34 44.77832 11.57963 37826 ft 493 kts 58°
2026-05-05 16:34 44.79581 11.62110 37988 ft 492 kts 58°
2026-05-05 16:34 44.81318 11.66238 37997 ft 488 kts 58°
2026-05-05 16:35 44.84763 11.74447 37997 ft 486 kts 58°
2026-05-05 16:35 44.88202 11.82629 38001 ft 485 kts 58°
2026-05-05 16:36 44.91643 11.90822 37991 ft 485 kts 58°
2026-05-05 16:36 44.95055 11.99017 38007 ft 483 kts 58°
2026-05-05 16:37 44.98429 12.07148 38016 ft 483 kts 58°
2026-05-05 16:37 45.00154 12.11294 37799 ft 484 kts 58°
2026-05-05 16:37 45.01839 12.15336 37387 ft 483 kts 58°
2026-05-05 16:38 45.03544 12.19435 37063 ft 482 kts 58°
2026-05-05 16:38 45.04601 12.21979 37212 ft 478 kts 58°
2026-05-05 16:38 45.06285 12.26036 37493 ft 478 kts 58°
2026-05-05 16:38 45.07968 12.30091 37751 ft 478 kts 58°
2026-05-05 16:39 45.09654 12.34149 37959 ft 480 kts 58°
2026-05-05 16:39 45.11353 12.38231 37986 ft 480 kts 58°
2026-05-05 16:39 45.14751 12.46360 37989 ft 479 kts 58°
2026-05-05 16:40 45.18144 12.54482 37989 ft 479 kts 58°
2026-05-05 16:40 45.21537 12.62617 37982 ft 479 kts 58°
2026-05-05 16:41 45.24927 12.70754 37982 ft 479 kts 58°
2026-05-05 16:41 45.28313 12.78856 37998 ft 479 kts 58°
2026-05-05 16:42 45.31731 12.87005 37998 ft 478 kts 58°
2026-05-05 16:42 45.35131 12.95119 38002 ft 477 kts 58°
2026-05-05 16:43 45.38521 13.03221 38009 ft 477 kts 58°
2026-05-05 16:43 45.41908 13.11335 38045 ft 477 kts 59°
2026-05-05 16:44 45.45240 13.19472 38023 ft 476 kts 59°
2026-05-05 16:44 45.48555 13.27639 38032 ft 475 kts 59°
2026-05-05 16:45 45.51872 13.35778 38016 ft 475 kts 59°
2026-05-05 16:45 45.55185 13.43906 38030 ft 474 kts 59°
2026-05-05 16:46 45.58346 13.52161 38034 ft 473 kts 68°
2026-05-05 16:46 45.60254 13.61114 38033 ft 472 kts 76°
2026-05-05 16:47 45.61941 13.70171 38032 ft 472 kts 76°
2026-05-05 16:47 45.63620 13.79163 38032 ft 471 kts 76°
2026-05-05 16:48 45.65170 13.87497 38029 ft 472 kts 76°
2026-05-05 16:48 45.66785 13.96297 38033 ft 472 kts 76°
2026-05-05 16:49 45.68443 14.05371 38034 ft 472 kts 76°
2026-05-05 16:49 45.70102 14.14469 38044 ft 473 kts 76°
2026-05-05 16:50 45.71755 14.23574 38033 ft 474 kts 76°
2026-05-05 16:50 45.73409 14.32704 38029 ft 473 kts 76°
2026-05-05 16:51 45.75050 14.41825 38039 ft 473 kts 76°
2026-05-05 16:51 45.76682 14.50942 38026 ft 472 kts 76°
2026-05-05 16:52 45.78298 14.60050 38020 ft 472 kts 76°
2026-05-05 16:52 45.79909 14.69166 38008 ft 472 kts 76°
2026-05-05 16:53 45.81517 14.78286 38008 ft 472 kts 76°
2026-05-05 16:53 45.83112 14.87360 38008 ft 472 kts 76°
2026-05-05 16:54 45.84715 14.96554 37993 ft 472 kts 76°
2026-05-05 16:54 45.86291 15.05644 37999 ft 472 kts 76°
2026-05-05 16:55 45.87869 15.14790 37993 ft 472 kts 76°
2026-05-05 16:55 45.89444 15.23953 37986 ft 473 kts 76°
2026-05-05 16:56 45.91012 15.33130 37987 ft 474 kts 76°
2026-05-05 16:56 45.92575 15.42329 37967 ft 474 kts 76°
2026-05-05 16:57 45.94137 15.51539 37998 ft 474 kts 76°
2026-05-05 16:57 45.95686 15.60762 37993 ft 475 kts 76°
2026-05-05 16:58 45.97224 15.69979 37998 ft 474 kts 75°
2026-05-05 16:58 45.99009 15.79095 37992 ft 474 kts 71°
2026-05-05 16:59 46.01070 15.88089 37993 ft 474 kts 70°
2026-05-05 16:59 46.03124 15.97091 38005 ft 474 kts 71°
2026-05-05 17:00 46.05094 16.06139 38011 ft 474 kts 72°
2026-05-05 17:00 46.07010 16.15205 38009 ft 473 kts 72°
2026-05-05 17:01 46.08927 16.24256 38010 ft 472 kts 72°
2026-05-05 17:01 46.10855 16.33286 38006 ft 471 kts 72°
2026-05-05 17:02 46.12779 16.42321 37991 ft 471 kts 72°
2026-05-05 17:02 46.14682 16.51352 37997 ft 471 kts 72°
2026-05-05 17:03 46.16564 16.60331 37992 ft 470 kts 72°
2026-05-05 17:03 46.18454 16.69359 37999 ft 470 kts 72°
2026-05-05 17:04 46.20344 16.78440 37994 ft 469 kts 72°
2026-05-05 17:04 46.22201 16.87398 37984 ft 468 kts 72°
2026-05-05 17:05 46.24332 16.96328 37674 ft 465 kts 62°
2026-05-05 17:05 46.25985 17.00322 37403 ft 463 kts 53°
2026-05-05 17:05 46.27807 17.04078 37124 ft 462 kts 53°
2026-05-05 17:06 46.29645 17.07886 36863 ft 462 kts 54°
2026-05-05 17:06 46.31507 17.11756 36612 ft 461 kts 54°
2026-05-05 17:06 46.33311 17.15512 36346 ft 461 kts 54°
2026-05-05 17:06 46.35139 17.19326 36086 ft 461 kts 54°
2026-05-05 17:07 46.36968 17.23146 35834 ft 462 kts 54°
2026-05-05 17:07 46.38798 17.26963 35578 ft 461 kts 54°
2026-05-05 17:07 46.40618 17.30765 35313 ft 458 kts 54°
2026-05-05 17:07 46.42424 17.34550 34846 ft 455 kts 54°
2026-05-05 17:08 46.44220 17.38320 34365 ft 453 kts 54°
2026-05-05 17:08 46.46003 17.42068 33889 ft 451 kts 54°
2026-05-05 17:08 46.47781 17.45808 33376 ft 448 kts 54°
2026-05-05 17:08 46.49541 17.49519 32904 ft 444 kts 54°
2026-05-05 17:09 46.51282 17.53194 32428 ft 441 kts 55°
2026-05-05 17:09 46.53012 17.56844 31961 ft 438 kts 55°
2026-05-05 17:09 46.54729 17.60475 31495 ft 435 kts 55°
2026-05-05 17:09 46.56433 17.64086 31021 ft 432 kts 55°
2026-05-05 17:10 46.58124 17.67673 30571 ft 429 kts 55°
2026-05-05 17:10 46.59803 17.71243 30119 ft 427 kts 55°
2026-05-05 17:10 46.61478 17.74797 29633 ft 424 kts 55°
2026-05-05 17:10 46.63135 17.78317 29204 ft 420 kts 55°
2026-05-05 17:11 46.64776 17.81812 28773 ft 417 kts 55°
2026-05-05 17:11 46.66402 17.85286 28354 ft 413 kts 55°
2026-05-05 17:11 46.68016 17.88735 27937 ft 410 kts 55°
2026-05-05 17:11 46.69618 17.92160 27539 ft 408 kts 55°
2026-05-05 17:12 46.71207 17.95560 27140 ft 405 kts 55°
2026-05-05 17:12 46.72787 17.98945 26740 ft 402 kts 55°
2026-05-05 17:12 46.74353 18.02301 26348 ft 399 kts 55°
2026-05-05 17:12 46.75907 18.05639 25953 ft 396 kts 55°
2026-05-05 17:13 46.77450 18.08959 25425 ft 399 kts 55°
2026-05-05 17:13 46.79009 18.12314 24742 ft 400 kts 55°
2026-05-05 17:13 46.80560 18.15662 24439 ft 395 kts 55°
2026-05-05 17:13 46.82091 18.18969 24201 ft 392 kts 55°
2026-05-05 17:14 46.83605 18.22247 23894 ft 387 kts 55°
2026-05-05 17:14 46.85105 18.25493 23457 ft 385 kts 55°
2026-05-05 17:14 46.86597 18.28729 22991 ft 382 kts 55°
2026-05-05 17:14 46.88074 18.31937 22568 ft 379 kts 56°
2026-05-05 17:15 46.89539 18.35119 22129 ft 375 kts 56°
2026-05-05 17:15 46.90500 18.37208 21851 ft 373 kts 56°
2026-05-05 17:15 46.91939 18.40341 21422 ft 370 kts 56°
2026-05-05 17:15 46.93848 18.44499 20865 ft 366 kts 56°
2026-05-05 17:16 46.95262 18.47580 20432 ft 364 kts 56°
2026-05-05 17:16 46.96194 18.49617 20155 ft 362 kts 56°
2026-05-05 17:16 46.97586 18.52669 19736 ft 359 kts 56°
2026-05-05 17:16 46.99087 18.55570 19311 ft 356 kts 46°
2026-05-05 17:17 47.00926 18.57970 18902 ft 353 kts 34°
2026-05-05 17:17 47.02996 18.59870 18495 ft 350 kts 30°
2026-05-05 17:17 47.05079 18.61706 18071 ft 349 kts 30°
2026-05-05 17:17 47.07149 18.63539 17601 ft 347 kts 30°
2026-05-05 17:18 47.09221 18.65381 16969 ft 351 kts 30°
2026-05-05 17:18 47.11319 18.67245 16348 ft 354 kts 31°
2026-05-05 17:18 47.13460 18.69059 15696 ft 355 kts 24°
2026-05-05 17:18 47.15759 18.70276 14797 ft 348 kts 17°
2026-05-05 17:19 47.18056 18.71370 13843 ft 346 kts 17°
2026-05-05 17:19 47.20340 18.72445 12803 ft 344 kts 17°
2026-05-05 17:19 47.22610 18.73515 11782 ft 342 kts 17°
2026-05-05 17:19 47.24868 18.74582 10785 ft 340 kts 17°
2026-05-05 17:20 47.27112 18.75642 9825 ft 339 kts 17°
2026-05-05 17:20 47.29350 18.76702 8865 ft 338 kts 17°
2026-05-05 17:20 47.31561 18.77753 8654 ft 328 kts 17°
2026-05-05 17:20 47.33700 18.78772 8500 ft 317 kts 17°
2026-05-05 17:21 47.35767 18.79760 8381 ft 311 kts 18°
2026-05-05 17:21 47.37823 18.80746 8124 ft 310 kts 18°
2026-05-05 17:21 47.39869 18.81728 7759 ft 309 kts 17°
2026-05-05 17:22 47.43954 18.83684 6940 ft 311 kts 18°
2026-05-05 17:22 47.46021 18.84671 6459 ft 313 kts 18°
2026-05-05 17:22 47.48095 18.85662 6131 ft 310 kts 18°
2026-05-05 17:22 47.50112 18.86627 6000 ft 300 kts 18°
2026-05-05 17:23 47.52062 18.87563 5869 ft 289 kts 18°
2026-05-05 17:23 47.53897 18.88620 5742 ft 279 kts 29°
2026-05-05 17:23 47.55464 18.90256 5527 ft 273 kts 44°
2026-05-05 17:23 47.56855 18.92140 5192 ft 266 kts 44°
2026-05-05 17:24 47.58173 18.93952 4785 ft 251 kts 49°
2026-05-05 17:24 47.58961 18.96116 4592 ft 229 kts 83°
2026-05-05 17:24 47.58959 18.98293 4484 ft 214 kts 109°
2026-05-05 17:24 47.58316 19.00208 4282 ft 203 kts 136°
2026-05-05 17:25 47.57394 19.01722 4060 ft 194 kts 138°
2026-05-05 17:25 47.56805 19.02680 3877 ft 186 kts 139°
2026-05-05 17:25 47.55719 19.04451 3574 ft 166 kts 139°
2026-05-05 17:25 47.54995 19.05634 3381 ft 150 kts 140°
2026-05-05 17:26 47.54310 19.06746 3184 ft 146 kts 140°
2026-05-05 17:26 47.53630 19.07850 2993 ft 144 kts 139°
2026-05-05 17:26 47.52957 19.08943 2800 ft 143 kts 139°
2026-05-05 17:26 47.52290 19.10029 2621 ft 143 kts 140°
2026-05-05 17:27 47.51621 19.11116 2431 ft 143 kts 141°
2026-05-05 17:27 47.50958 19.12193 2232 ft 141 kts 138°
2026-05-05 17:27 47.50317 19.13236 2054 ft 141 kts 139°
2026-05-05 17:27 47.49654 19.14313 1870 ft 140 kts 139°
2026-05-05 17:28 47.49001 19.15374 1689 ft 140 kts 139°
2026-05-05 17:28 47.48345 19.16439 1485 ft 141 kts 138°
2026-05-05 17:28 47.47680 19.17517 1315 ft 143 kts 138°
2026-05-05 17:28 47.47017 19.18593 1118 ft 140 kts 137°
2026-05-05 17:29 47.46380 19.19627 939 ft 139 kts 137°
2026-05-05 17:29 47.45726 19.20681 717 ft 140 kts 136°
2026-05-05 17:29 47.45102 19.21724 569 ft 140 kts 140°
2026-05-05 17:29 47.44531 19.22662 470 ft 140 kts 137°
2026-05-05 17:30 47.43874 19.23720 786 ft 159 kts 136°
2026-05-05 17:30 47.43057 19.25035 1328 ft 195 kts 136°
2026-05-05 17:30 47.42107 19.26612 1790 ft 218 kts 135°
2026-05-05 17:30 47.41054 19.28402 2304 ft 240 kts 135°
2026-05-05 17:31 47.39944 19.30215 2884 ft 229 kts 137°
2026-05-05 17:31 47.38904 19.31894 2986 ft 223 kts 137°
2026-05-05 17:31 47.37859 19.33580 3006 ft 221 kts 137°
2026-05-05 17:31 47.36890 19.35329 3009 ft 225 kts 122°
2026-05-05 17:32 47.36479 19.37572 3007 ft 232 kts 91°
2026-05-05 17:32 47.36919 19.39881 3007 ft 236 kts 57°
2026-05-05 17:32 47.38103 19.41503 3009 ft 237 kts 24°
2026-05-05 17:32 47.39681 19.42005 3011 ft 232 kts 351°
2026-05-05 17:33 47.41153 19.41300 3007 ft 222 kts 320°
2026-05-05 17:33 47.42182 19.39687 3010 ft 215 kts 297°
2026-05-05 17:33 47.42983 19.37806 3005 ft 217 kts 297°
2026-05-05 17:33 47.43789 19.35913 3005 ft 218 kts 297°
2026-05-05 17:34 47.44595 19.34027 3005 ft 219 kts 297°
2026-05-05 17:34 47.45417 19.32106 3006 ft 219 kts 297°
2026-05-05 17:34 47.46230 19.30206 3008 ft 219 kts 297°
2026-05-05 17:34 47.47042 19.28313 3008 ft 218 kts 298°
2026-05-05 17:35 47.47849 19.26423 3007 ft 218 kts 298°
2026-05-05 17:35 47.48661 19.24523 3007 ft 218 kts 298°
2026-05-05 17:35 47.49468 19.22632 3007 ft 219 kts 297°
2026-05-05 17:35 47.50281 19.20727 3006 ft 219 kts 297°
2026-05-05 17:36 47.51090 19.18830 3007 ft 219 kts 297°
2026-05-05 17:36 47.51904 19.16922 3010 ft 219 kts 297°
2026-05-05 17:36 47.52713 19.15023 3007 ft 219 kts 297°
2026-05-05 17:36 47.53512 19.13148 3020 ft 219 kts 298°
2026-05-05 17:37 47.54330 19.11225 3008 ft 218 kts 297°
2026-05-05 17:37 47.55133 19.09336 3005 ft 215 kts 297°
2026-05-05 17:37 47.55927 19.07464 3004 ft 215 kts 297°
2026-05-05 17:37 47.56708 19.05616 3004 ft 215 kts 296°
2026-05-05 17:38 47.57493 19.03751 3002 ft 215 kts 296°
2026-05-05 17:38 47.58300 19.01842 3001 ft 216 kts 297°
2026-05-05 17:38 47.58836 18.99848 2999 ft 209 kts 273°
2026-05-05 17:38 47.58695 18.97747 2998 ft 201 kts 246°
2026-05-05 17:39 47.57933 18.96052 3003 ft 199 kts 221°
2026-05-05 17:39 47.56737 18.95074 2997 ft 202 kts 196°
2026-05-05 17:39 47.55327 18.95026 3000 ft 208 kts 169°
2026-05-05 17:39 47.54062 18.95980 3023 ft 200 kts 144°
2026-05-05 17:40 47.53369 18.97628 3000 ft 186 kts 106°
2026-05-05 17:40 47.53174 18.99468 3002 ft 173 kts 107°
2026-05-05 17:40 47.52927 19.01174 2995 ft 167 kts 108°
2026-05-05 17:40 47.52692 19.02789 3029 ft 157 kts 108°
2026-05-05 17:41 47.52465 19.04334 3003 ft 155 kts 109°
2026-05-05 17:41 47.52236 19.05889 2918 ft 154 kts 109°
2026-05-05 17:41 47.52008 19.07436 2773 ft 153 kts 108°
2026-05-05 17:41 47.51782 19.08972 2619 ft 153 kts 108°
2026-05-05 17:42 47.51479 19.10453 2440 ft 149 kts 122°
2026-05-05 17:42 47.50966 19.11776 2263 ft 147 kts 131°
2026-05-05 17:42 47.50366 19.12970 2085 ft 143 kts 135°
2026-05-05 17:42 47.49736 19.14092 1895 ft 141 kts 137°
2026-05-05 17:43 47.49089 19.15188 1723 ft 140 kts 138°
2026-05-05 17:43 47.48443 19.16258 1527 ft 140 kts 139°
2026-05-05 17:43 47.47785 19.17337 1351 ft 142 kts 137°
2026-05-05 17:43 47.47126 19.18412 1157 ft 140 kts 136°
2026-05-05 17:44 47.46464 19.19486 954 ft 144 kts 134°
2026-05-05 17:44 47.45798 19.20569 774 ft 144 kts 134°
2026-05-05 17:44 47.45113 19.21677 586 ft 146 kts 135°
2026-05-05 17:44 47.44481 19.22699 451 ft 134 kts 134°
2026-05-05 17:45 47.43964 19.23533 455 ft 86 kts 132°
2026-05-05 17:45 47.43685 19.23988 454 ft 39 kts 132°
2026-05-05 17:45 47.43613 19.24104 453 ft 2 kts 131°
2026-05-05 17:45 47.43567 19.24182 452 ft 15 kts 131°
2026-05-05 17:46 47.43491 19.24307 451 ft 18 kts 131°
2026-05-05 17:46 47.43407 19.24446 452 ft 19 kts 132°
2026-05-05 17:46 47.43321 19.24584 453 ft 20 kts 132°
2026-05-05 17:46 47.43230 19.24730 456 ft 18 kts 133°
2026-05-05 17:47 47.43144 19.24868 457 ft 18 kts 132°
2026-05-05 17:47 47.43100 19.24970 458 ft 13 kts 103°
2026-05-05 17:47 47.43126 19.25098 456 ft 14 kts 47°
2026-05-05 17:47 47.43205 19.25201 457 ft 16 kts 40°
2026-05-05 17:48 47.43292 19.25319 456 ft 18 kts 42°
2026-05-05 17:48 47.43391 19.25448 457 ft 20 kts 43°
2026-05-05 17:48 47.43499 19.25595 457 ft 22 kts 42°
2026-05-05 17:48 47.43588 19.25714 457 ft 10 kts 42°
2026-05-05 17:49 47.43638 19.25783 457 ft 7 kts 42°
2026-05-05 17:49 47.43683 19.25843 457 ft 10 kts 42°
2026-05-05 17:49 47.43718 19.25891 458 ft 4 kts 49°
2026-05-05 17:49 47.43734 19.25949 457 ft 7 kts 86°
2026-05-05 17:50 47.43714 19.26005 458 ft 2 kts 132°
2026-05-05 17:50 47.43694 19.26041 457 ft 8 kts 126°
2026-05-05 17:50 47.43675 19.26136 458 ft 11 kts 88°
2026-05-05 17:50 47.43678 19.26236 458 ft 10 kts 87°
2026-05-05 17:51 47.43667 19.26344 456 ft 12 kts 120°
2026-05-05 17:51 47.43657 19.26364 458 ft 3 kts 129°
2026-05-05 17:51 47.43638 19.26395 458 ft 5 kts 133°
2026-05-05 17:51 47.43605 19.26438 458 ft 6 kts 160°
2026-05-05 17:52 47.43589 19.26423 458 ft 1 kts 226°
2026-05-05 17:52 47.43577 19.26409 458 ft 1 kts 220°
2026-05-05 17:52 47.43572 19.26403 455 ft 1 kts 222°
2026-05-05 17:52 47.43565 19.26393 456 ft 1 kts 222°
2026-05-05 17:53 47.43564 19.26392 457 ft 0 kts 222°